Location: Bush Observatory
(40.2653°N, 94.3194°W)
Time: 03:00:17
(UTC-05:00)

JAS-2 - Visible Passes

Search period start: 01 May 2016 00:00
Search period end: 11 May 2016 00:00
Orbit: 801 x 1321 km, 98.6° (Epoch: 30 April)

Date Brightness Start Highest point End Pass type
(mag) Time Alt. Az. Time Alt. Az. Time Alt. Az.
01 May 11.8 00:47:21 10° NE 00:51:56 16° E 00:52:14 16° E visible
01 May 9.9 02:29:58 10° NNE 02:37:48 85° ESE 02:38:43 72° S visible
01 May 11.5 04:16:23 10° NNW 04:21:54 22° WNW 04:25:13 17° W visible
02 May 10.9 01:35:30 10° NNE 01:42:40 38° E 01:43:07 38° ESE visible
02 May 10.5 03:20:19 10° N 03:27:40 48° WNW 03:29:36 40° WSW visible
03 May 11.9 00:42:47 10° NE 00:47:00 15° E 00:47:30 15° E visible
03 May 10.0 02:25:05 10° NNE 02:32:57 81° ESE 02:33:59 69° SSE visible
03 May 11.4 04:11:22 10° NNW 04:17:06 23° WNW 04:20:29 18° W visible
04 May 10.9 01:30:42 10° NNE 01:37:47 36° E 01:38:22 35° ESE visible
04 May 10.5 03:15:23 10° N 03:22:51 51° WNW 03:24:52 42° WSW visible
04 May 12.1 05:05:01 10° NW 05:06:06 10° NW 05:07:12 10° WNW visible
05 May 11.9 00:38:17 10° NE 00:42:03 14° E 00:42:45 14° E visible
05 May 10.0 02:20:14 10° NNE 02:28:08 77° ESE 02:29:14 66° SSE visible
05 May 11.4 04:06:22 10° N 04:12:19 25° WNW 04:15:44 18° W visible
06 May 11.0 01:25:55 10° NNE 01:32:53 34° E 01:33:37 33° ESE visible
06 May 10.4 03:10:29 10° N 03:18:02 53° WNW 03:20:06 43° WSW visible
06 May 12.0 04:59:18 10° NW 05:01:20 11° NW 05:03:22 10° WNW visible
07 May 12.0 00:33:53 10° ENE 00:37:06 13° E 00:37:59 13° E visible
07 May 10.1 02:15:23 10° NNE 02:23:16 72° ESE 02:24:29 63° SSE visible
07 May 11.3 04:01:23 10° N 04:07:31 26° WNW 04:10:58 19° W visible
08 May 11.1 01:21:09 10° NNE 01:28:00 31° E 01:28:50 31° ESE visible
08 May 10.3 03:05:35 10° N 03:13:14 56° WNW 03:15:20 44° WSW visible
08 May 12.0 04:53:57 10° NNW 04:56:33 12° NW 04:59:11 10° WNW visible
09 May 12.1 00:29:38 10° ENE 00:32:08 12° E 00:33:12 11° E visible
09 May 10.1 02:10:32 10° NNE 02:18:25 68° E 02:19:42 60° SSE visible
09 May 11.3 03:56:26 10° N 04:02:44 28° WNW 04:06:11 20° W visible
10 May 11.2 01:16:25 10° NE 01:23:06 29° E 01:24:03 29° ESE visible
10 May 10.3 03:00:42 10° N 03:08:25 60° WNW 03:10:32 46° WSW visible
10 May 11.9 04:48:43 10° NNW 04:51:47 13° NW 04:54:51 10° WNW visible
